Regional Weather Roundup
Issued by NWS

Home | Current Version | Previous Version | Text Only | Print | Product List | Glossary Off
Versions: 1 2 3 4 5 6 7 8 9 10 11 12 13 14 15 16 17 18 19 20 21 22 23 24 25 26 27 28 29 30 31 32 33 34 35 36 37 38 39 40 41 42 43 44 45 46 47 48 49 50

000
ASUS43 KMKX 032111
RWRWI

WISCONSIN REGIONAL WEATHER ROUNDUP
NATIONAL WEATHER SERVICE MILWAUKEE/SULLIVAN WI
400 PM CDT FRI JUL 03 2015

NOTE: "FAIR" INDICATES FEW OR NO CLOUDS BELOW 12,000 FEET WITH NO
SIGNIFICANT WEATHER AND/OR OBSTRUCTIONS TO VISIBILITY.

WIZ001-002-006>008-014>016-023>028-032200-
NORTHWEST WISCONSIN

CITY           SKY/WX    TMP DP  RH WIND       PRES   REMARKS
SUPERIOR ARPT  MOSUNNY   79  63  57 W8        29.84S HX  81
ASHLAND        MOSUNNY   79  64  60 W9        29.85F HAZE    HX  81
HAYWARD        CLOUDY    76  61  59 W7        29.90S
SIREN          MOSUNNY   78  61  55 W12       29.90S
CUMBERLAND     MOSUNNY   73  55  53 SW12      29.92F
RICE LAKE      MOSUNNY   77  58  51 SW8G16    29.93S
CHETEK         PTSUNNY   76  59  55 W5        29.92S
LADYSMITH      PTSUNNY   76  58  52 SW8       29.93S
EAU CLAIRE     SUNNY     77  56  48 W8        29.92F
MENOMONIE      SUNNY     78  58  51 SW9       29.93S
NEW RICHMOND   SUNNY     78  57  48 SW6       29.93S
OSCEOLA        SUNNY     79  58  48 SW8       29.94F HX  80
$$

WIZ003>005-009-010-017-018-032200-
NORTH CENTRAL WISCONSIN

CITY           SKY/WX    TMP DP  RH WIND       PRES   REMARKS
MANITOWISH WTR PTSUNNY   73  60  63 W8        29.90S
ARBOR VITAE    MOSUNNY   73  58  60 W7        29.91S
WOODRUFF       MOSUNNY   73  58  60 W7        29.91S
RHINELANDER    MOSUNNY   74  54  49 W10       29.92F
EAGLE RIVER    PTSUNNY   72  54  52 W9        29.90S
LAND O LAKES   MOSUNNY   74  57  54 W8        29.90F
PHILLIPS       MOSUNNY   73  58  59 SW9       29.91S
TOMAHAWK       MOSUNNY   74  54  50 W7        29.92S
MEDFORD        SUNNY     74  56  53 SW9G16    29.93F
MERRILL        CLOUDY    74  57  54 W10       29.93S
$$

WIZ029-030-035-036-043>047-032200-
CENTRAL WISCONSIN

CITY           SKY/WX    TMP DP  RH WIND       PRES   REMARKS
WAUSAU         SUNNY     76  54  46 W9        29.91F
MOSINEE        MOSUNNY   73  57  56 SW9       29.94F
MARSHFIELD     MOSUNNY   76  55  48 SW7       29.93F
STEVENS POINT  MOSUNNY   73  55  52 SW8       29.93F
WAUPACA        MOSUNNY   78  52  40 SW8       29.93F
WAUTOMA        MOSUNNY   78  53  41 SW9       29.94F
WISC RAPIDS    MOSUNNY   77  54  44 SW8       29.94F
CAMP DOUGLAS   SUNNY     78  60  54 VRB7      29.94F
$$

WIZ011>013-019>022-031-037>040-048>050-032200-
NORTHEAST WISCONSIN

CITY           SKY/WX    TMP DP  RH WIND       PRES   REMARKS
ANTIGO         CLOUDY    71  57  61 SW9       29.93S
SHAWANO        PTSUNNY   78  50  38 S8        29.91F
OCONTO         PTSUNNY   76  54  47 SW10      29.89F
STURGEON BAY   MOSUNNY   73  54  49 SW9G20    29.93F
GREEN BAY      PTSUNNY   75  56  51 S7        29.92F
MANITOWOC      SUNNY     70  48  45 MISG      29.94
APPLETON       PTSUNNY   73  52  46 W8        29.94F
CLINTONVILLE   MOSUNNY   77  48  36 W10       29.91F
OSHKOSH        MOSUNNY   75  53  46 W6        29.93F
$$

WIZ032>034-041-042-053>061-032200-
SOUTHWEST WISCONSIN

CITY           SKY/WX    TMP DP  RH WIND       PRES   REMARKS
LA CROSSE      MOSUNNY   78  57  48 VRB5      29.93F
SPARTA         SUNNY     78  52  40 SW6       29.95S
VIROQUA        MOSUNNY   75  55  50 W3        29.97S
BOSCOBEL       SUNNY     77  57  50 W6        29.95F
PRAIRIE DU CHI MOSUNNY   75  54  47 SW5       29.95F
PLATTEVILLE    SUNNY     74  50  43 W5        29.96F
$$

WIZ056-057-062-063-064-067-068-032200-
SOUTH CENTRAL WISCONSIN

CITY           SKY/WX    TMP DP  RH WIND       PRES   REMARKS
REEDSBURG      SUNNY     75  57  54 SW6       29.94F
BARABOO/DELLS  SUNNY     75  51  43 CALM      29.95F
LONE ROCK      SUNNY     76  51  41 CALM      29.96S
MINERAL POINT  SUNNY     75  50  41 W3        29.97S
MADISON        MOSUNNY   76  53  44 VRB5      29.94F
MIDDLETON      SUNNY     76  50  40 W6        29.96F
WATERTOWN      SUNNY     74  57  53 W6        29.94F
MONROE         SUNNY     75  54  46 W7        29.96S
JANESVILLE     MOSUNNY   77  54  44 CALM      29.94F
$$

WIZ051-052-058>065-066-070>072-032200-
SOUTHEAST WISCONSIN

CITY           SKY/WX    TMP DP  RH WIND       PRES   REMARKS
MILWAUKEE      PTSUNNY   70  52  52 E10       29.95F
WAUKESHA       MOSUNNY   73  54  49 W6        29.95F
MILWAUKEE/TIMM SUNNY     73  43  33 E9        29.95F
RACINE         SUNNY     70  54  56 E8        29.96F
BURLINGTON     SUNNY     75  55  48 CALM      29.94F
KENOSHA        MOSUNNY   73  53  49 E8        29.95F
FOND DU LAC    MOSUNNY   75  53  46 SW5       29.94F
SHEBOYGAN      SUNNY     73  50  44 S9        29.94F
WEST BEND      MOSUNNY   73  50  43 SE6       29.94F
JUNEAU         SUNNY     74  54  50 SW6       29.96S
$$

LSZ147-162-032200-
LAKE SUPERIOR

STATION/POSITION TIME  TEMP    WIND        PRES    WAVE
                       AIR SEA DIR/SP/G            HT/PER
                 (UTC) (F)     (DEG/KT/KT) (MB)    (FT/S)
W MID LAKE BUOY  2050   48 39  220/  8/ 10 1010.0F   2/ 5
DEVILS ISLAND    2100   67     250/ 13/ 14 1010.1F
SAXON HARBOR     2040   78     210/  5/  8 1010.8F
$$

LMZ867-665-643>646-032200-
LAKE MICHIGAN

STATION/POSITION TIME  TEMP    WIND        PRES    WAVE
                       AIR SEA DIR/SP/G            HT/PER
                 (UTC) (F)     (DEG/KT/KT) (MB)    (FT/S)
CHAMBERS ISLAND  2000   71     180/ 10/ 13 1012.5F
S GREEN BAY BUOY 2100   71 69  200/ 10/ 12 1014.2
N MID LAKE BUOY  2050   50 44  200/ 14/ 16 1012.3F   1/ 3
NORTHPORT PIER   2000   68     150/  8/ 10 1012.5F
SISTER BAY       2044   73     200/ 16/ 19   N/A
ALGOMA LAKESHORE 1925          210/ 11/ 12   N/A
KEWAUNEE LAKESHO 2000   63     190/ 12/ 15 1013.3F
SHEBOYGAN LAKESH 2100   60     160/ 10/ 11 1014.2F
PORT WASHINGTON  2000   67     170/  5/  6 1015.2F
ATWATER BUOY     2100   62 61  140/  6/  8 1015.5F
MILWAUKEE LAKESH 2000   61     120/  6/  7   N/A
KENOSHA   LAKESH 2100   67     130/  3/  4 1013.9F
$$

TC  - TEMPERATURE IN CELSIUS
VSB - VISIBILITY IN STATUTE MILES
WCI - WIND CHILL INDEX
HX  - HEAT INDEX



USA.gov is the U.S. government's official web portal to all federal, state and local government web resources and services.